[[{"header":{"parameterUnit":"m.s-1","parameterCategory":2,"la1":30.2992,"la2":30.254,"lo1":-89.0895,"lo2":-89.0443,"dy":0.0025,"dx":0.0025,"nx":19,"ny":19,"refTime":"2026-03-14T03:00:00:Z","depth":"0","parameterNumber":2,"parameterNumberName":"U-component_of_CURRENTS"},"data":[0,0,0,-0.1043,-0.1045,-0.111,-0.111,-0.1129,-0.1129,0,0,0,0,0,0,0,0,0,0,0,-0.1011,-0.1011,-0.1043,-0.1045,-0.111,-0.111,-0.1129,-0.1129,0,0,0,0,0,0,0,0,0,0,0,-0.1011,-0.1011,-0.1012,-0.1045,-0.111,-0.111,-0.1129,-0.1094,0,0,0,0,0,0,0,0,0,0,-0.1039,-0.1012,-0.1011,-0.1012,-0.1046,-0.111,-0.111,-0.1093,-0.1097,-0.1083,0,-0.1094,0,-0.1118,-0.113,-0.113,0,0,0,-0.1039,-0.101,-0.1038,-0.1012,-0.1047,-0.111,-0.1079,-0.1096,-0.1099,-0.1087,-0.1094,-0.1096,-0.1118,-0.113,-0.113,-0.1154,-0.1154,0,0,-0.1035,-0.1011,-0.1036,-0.104,-0.1063,-0.1077,-0.1081,-0.1098,-0.1093,-0.1094,-0.1097,-0.1119,-0.113,-0.113,-0.1154,-0.1154,0,0,0,-0.1029,-0.1009,-0.1038,-0.1039,-0.1059,-0.1079,-0.1084,-0.1092,-0.1105,-0.1097,-0.1119,-0.113,-0.113,-0.1154,-0.1154,-0.119,0,0,0,-0.1027,-0.1006,-0.1036,-0.1021,-0.1059,-0.1084,-0.1077,-0.1104,-0.1107,-0.1119,-0.113,-0.113,-0.1154,-0.1154,-0.1189,-0.1199,0,0,0,-0.1008,-0.1004,-0.1014,-0.102,-0.1054,-0.1085,-0.1099,-0.1105,-0.112,-0.113,-0.113,-0.1153,-0.1154,-0.1187,-0.1197,-0.1155,0,0,0,-0.0978,-0.101,-0.1013,-0.1059,-0.1053,-0.1124,-0.1099,-0.1135,-0.1147,-0.113,-0.1154,-0.1154,-0.1187,-0.1196,-0.1155,-0.0898,-0.0879,0,0,-0.101,-0.1013,-0.1046,-0.1052,-0.1125,-0.1114,-0.1168,-0.1164,-0.1147,-0.1141,-0.1143,-0.1189,-0.1197,-0.1155,-0.093,-0.0909,0,0,0,-0.1052,-0.1069,-0.1093,-0.1133,-0.1177,-0.1198,-0.1203,-0.1192,-0.1187,-0.1159,-0.119,-0.1194,-0.1166,-0.101,-0.0995,-0.0876,-0.1157,-0.1157,-0.1156,-0.1037,-0.1085,-0.1135,-0.119,-0.1226,-0.1253,-0.1256,-0.1236,-0.1224,-0.1221,-0.1224,-0.1219,-0.1056,-0.1041,-0.0924,-0.1227,-0.1228,-0.1228,-0.1228,-0.1073,-0.1097,-0.1152,-0.1215,-0.1247,-0.1281,-0.1293,-0.1279,-0.1255,-0.1256,-0.1226,-0.1058,-0.1025,-0.0907,-0.123,-0.123,-0.1229,-0.1229,-0.1229,-0.1041,-0.106,-0.1108,-0.1184,-0.1235,-0.1279,-0.126,-0.1298,-0.1272,-0.1267,-0.1048,-0.1043,-0.0933,-0.1239,-0.1239,-0.1239,-0.1239,-0.1238,-0.1238,-0.0976,-0.1032,-0.105,-0.115,-0.1165,-0.1206,-0.1246,-0.1207,-0.1113,-0.1054,-0.1051,-0.0895,-0.1221,-0.1214,-0.1237,-0.1237,-0.1237,-0.1237,-0.1237,-0.0913,-0.0938,-0.0962,-0.0977,-0.1027,-0.0969,-0.1044,-0.0876,-0.0856,-0.0741,-0.0615,-0.0912,-0.0861,-0.087,-0.0853,-0.0781,-0.0781,-0.0781,-0.0781,-0.083,-0.0864,-0.084,-0.0832,-0.0831,-0.0841,-0.0561,-0.0443,-0.0341,-0.0246,-0.0369,-0.0305,-0.0329,-0.0248,-0.027,-0.0242,-0.0017,-0.0016,-0.0015,-0.0749,-0.077,-0.0703,-0.0738,-0.0727,-0.0628,-0.0311,-0.002,0.0112,0.0014,-0.0263,-0.0295,-0.0214,-0.026,-0.0145,-0.0186,-0.0145,0,0]},{"header":{"parameterUnit":"m.s-1","parameterCategory":2,"la1":30.2992,"la2":30.254,"lo1":-89.0895,"lo2":-89.0443,"dy":0.0025,"dx":0.0025,"nx":19,"ny":19,"refTime":"2026-03-14T03:00:00:Z","depth":"0","parameterNumber":3,"parameterNumberName":"V-component_of_CURRENTS"},"data":[0,0,0,0.0154,0.0154,0.017,0.017,0.0219,0.022,0,0,0,0,0,0,0,0,0,0,0,0.0146,0.0146,0.0154,0.0154,0.017,0.017,0.0219,0.022,0,0,0,0,0,0,0,0,0,0,0,0.0146,0.0146,0.0146,0.0154,0.017,0.017,0.0219,0.0202,0,0,0,0,0,0,0,0,0,0,0.0183,0.0168,0.0146,0.0146,0.0154,0.0169,0.017,0.0201,0.0203,0.0219,0,0.0214,0,0.0217,0.0223,0.0224,0,0,0,0.016,0.0166,0.0171,0.0146,0.0154,0.0169,0.0164,0.0202,0.0204,0.0222,0.0215,0.0217,0.0218,0.0224,0.0224,0.0249,0.0249,0,0,0.0159,0.0151,0.0169,0.0172,0.015,0.0164,0.0165,0.0203,0.0202,0.0215,0.0218,0.0219,0.0224,0.0224,0.0249,0.0249,0,0,0,0.0153,0.015,0.0154,0.017,0.017,0.0164,0.0165,0.02,0.0201,0.0218,0.022,0.0224,0.0225,0.0249,0.0249,0.0219,0,0,0,0.0153,0.0146,0.0153,0.0149,0.0169,0.0181,0.0162,0.0199,0.0203,0.0219,0.0224,0.0225,0.0249,0.0249,0.022,0.021,0,0,0,0.0147,0.0146,0.0145,0.0149,0.0153,0.018,0.0184,0.02,0.0204,0.0224,0.0226,0.0249,0.0249,0.0221,0.0212,0.0276,0,0,0,0.0142,0.0113,0.0144,0.0113,0.0153,0.0146,0.0183,0.0186,0.0198,0.0225,0.0249,0.0249,0.0222,0.0213,0.0276,0.0427,0.0441,0,0,0.0097,0.0107,0.0088,0.0116,0.0088,0.0145,0.0139,0.0172,0.0202,0.024,0.0241,0.022,0.0212,0.0276,0.0412,0.0426,0,0,0,0.0069,0.0051,0.0049,0.0043,0.0061,0.0093,0.0131,0.0161,0.0198,0.0208,0.0223,0.0219,0.0261,0.0351,0.0362,0.0534,0.0248,0.0248,0.0248,0.0006,0.0009,-0.0025,-0.0014,-0.0002,0.0058,0.0092,0.0145,0.0172,0.0187,0.0196,0.0226,0.0319,0.033,0.0503,0.0198,0.0197,0.0197,0.0197,-0.0072,-0.0092,-0.0075,-0.0107,-0.0053,-0.0037,0.0055,0.0095,0.018,0.0178,0.0221,0.0316,0.0341,0.0522,0.0195,0.0196,0.0196,0.0196,0.0196,-0.0116,-0.0125,-0.0141,-0.0162,-0.0141,-0.0081,-0.0003,0.0066,0.0148,0.0187,0.035,0.0353,0.0517,0.0231,0.0232,0.0232,0.0232,0.0232,0.0232,-0.0146,-0.0164,-0.0191,-0.0211,-0.02,-0.0151,-0.0025,0.0073,0.0255,0.0342,0.0344,0.0561,0.0237,0.0241,0.0236,0.0235,0.0235,0.0234,0.0234,-0.0187,-0.0188,-0.0229,-0.0233,-0.0215,-0.0127,-0.0019,0.0261,0.038,0.0512,0.0765,0.0453,0.0494,0.0487,0.0498,0.056,0.056,0.056,0.056,-0.0192,-0.0206,-0.0228,-0.0235,-0.0208,-0.0111,0.018,0.0448,0.0784,0.0971,0.0992,0.1026,0.1005,0.1076,0.1056,0.1078,0.1285,0.1286,0.1287,-0.019,-0.0204,-0.0205,-0.0234,-0.0206,-0.0059,0.0277,0.0739,0.1195,0.1327,0.1202,0.1172,0.1223,0.1177,0.1286,0.1244,0.1279,0,0]}],[{"header":{"parameterUnit":"m.s-1","parameterCategory":2,"la1":30.2992,"la2":30.254,"lo1":-89.0895,"lo2":-89.0443,"dy":0.0025,"dx":0.0025,"nx":19,"ny":19,"refTime":"2026-03-14T03:00:00:Z","depth":"2","parameterNumber":2,"parameterNumberName":"U-component_of_CURRENTS"},"data":[0,0,0,-0.1042,-0.1044,-0.1107,-0.1107,-0.1126,-0.1126,0,0,0,0,0,0,0,0,0,0,0,-0.1011,-0.1011,-0.1042,-0.1044,-0.1107,-0.1107,-0.1126,-0.1126,0,0,0,0,0,0,0,0,0,0,0,-0.101,-0.1011,-0.1011,-0.1044,-0.1107,-0.1107,-0.1126,-0.1092,0,0,0,0,0,0,0,0,0,0,-0.1038,-0.1012,-0.1011,-0.1011,-0.1044,-0.1107,-0.1107,-0.1091,-0.1094,-0.1081,0,-0.1091,0,-0.1115,-0.1126,-0.1126,0,0,0,-0.1038,-0.101,-0.1037,-0.1011,-0.1045,-0.1107,-0.1077,-0.1093,-0.1097,-0.1085,-0.1092,-0.1093,-0.1115,-0.1126,-0.1126,-0.1151,-0.1151,0,0,-0.1034,-0.1011,-0.1035,-0.1039,-0.1061,-0.1075,-0.1079,-0.1096,-0.1091,-0.1092,-0.1094,-0.1115,-0.1126,-0.1126,-0.1151,-0.1151,0,0,0,-0.1028,-0.1009,-0.1037,-0.1038,-0.1058,-0.1077,-0.1081,-0.109,-0.1103,-0.1095,-0.1116,-0.1126,-0.1127,-0.1151,-0.1151,-0.1187,0,0,0,-0.1026,-0.1006,-0.1035,-0.102,-0.1058,-0.1082,-0.1075,-0.1101,-0.1105,-0.1116,-0.1126,-0.1127,-0.115,-0.1151,-0.1186,-0.1197,0,0,0,-0.1008,-0.1004,-0.1014,-0.1019,-0.1052,-0.1083,-0.1096,-0.1103,-0.1117,-0.1126,-0.1127,-0.115,-0.1151,-0.1184,-0.1195,-0.1155,0,0,0,-0.0979,-0.101,-0.1013,-0.1058,-0.1052,-0.1121,-0.1096,-0.1132,-0.1144,-0.1126,-0.1151,-0.1151,-0.1184,-0.1193,-0.1155,-0.0917,-0.09,0,0,-0.101,-0.1013,-0.1045,-0.105,-0.1122,-0.1111,-0.1165,-0.1161,-0.1144,-0.1139,-0.114,-0.1186,-0.1194,-0.1155,-0.0949,-0.093,0,0,0,-0.1051,-0.1068,-0.1092,-0.1131,-0.1173,-0.1195,-0.1199,-0.1188,-0.1184,-0.1156,-0.1187,-0.1191,-0.1165,-0.1021,-0.1007,-0.1154,-0.1154,-0.1153,-0.1153,-0.1038,-0.1085,-0.1134,-0.1187,-0.1222,-0.1249,-0.1252,-0.1233,-0.1221,-0.1218,-0.1222,-0.1219,-0.1067,-0.1054,-0.1225,-0.1225,-0.1225,-0.1225,-0.1225,-0.1073,-0.1097,-0.115,-0.1212,-0.1244,-0.1277,-0.1289,-0.1276,-0.1254,-0.1253,-0.1225,-0.1068,-0.1039,-0.1228,-0.1227,-0.1227,-0.1227,-0.1227,-0.1226,-0.1043,-0.1061,-0.1108,-0.1183,-0.1233,-0.1277,-0.126,-0.1297,-0.1271,-0.1267,-0.1062,-0.1058,-0.1216,-0.1241,-0.1241,-0.1241,-0.124,-0.124,-0.124,-0.098,-0.1034,-0.1052,-0.115,-0.1164,-0.1206,-0.1248,-0.1212,-0.1127,-0.1071,-0.1068,-0.1223,-0.1222,-0.1215,-0.1239,-0.1239,-0.1239,-0.1239,-0.1239,-0.0917,-0.0941,-0.0965,-0.098,-0.1029,-0.098,-0.1053,-0.0898,-0.0881,-0.0772,-0.0931,-0.0939,-0.0891,-0.0898,-0.0882,-0.0818,-0.0818,-0.0818,-0.0818,-0.0836,-0.0869,-0.0844,-0.0835,-0.0836,-0.0855,-0.0604,-0.0531,-0.055,-0.0585,-0.0596,-0.0554,-0.0574,-0.0508,-0.0525,-0.0502,-0.034,-0.034,-0.0339,-0.0756,-0.0775,-0.0709,-0.0743,-0.0732,-0.065,-0.0383,-0.0167,-0.0196,-0.0333,-0.0642,-0.0761,-0.0726,-0.0747,-0.0669,-0.0688,-0.0659,0,0]},{"header":{"parameterUnit":"m.s-1","parameterCategory":2,"la1":30.2992,"la2":30.254,"lo1":-89.0895,"lo2":-89.0443,"dy":0.0025,"dx":0.0025,"nx":19,"ny":19,"refTime":"2026-03-14T03:00:00:Z","depth":"2","parameterNumber":3,"parameterNumberName":"V-component_of_CURRENTS"},"data":[0,0,0,0.0079,0.0079,0.0096,0.0096,0.0144,0.0145,0,0,0,0,0,0,0,0,0,0,0,0.0071,0.0071,0.0079,0.0079,0.0096,0.0096,0.0144,0.0145,0,0,0,0,0,0,0,0,0,0,0,0.0071,0.0071,0.0071,0.0079,0.0096,0.0096,0.0144,0.0126,0,0,0,0,0,0,0,0,0,0,0.0107,0.0092,0.0071,0.0071,0.008,0.0096,0.0096,0.0125,0.0127,0.0143,0,0.0138,0,0.0142,0.0148,0.0148,0,0,0,0.0085,0.009,0.0096,0.0071,0.008,0.0096,0.009,0.0126,0.0129,0.0146,0.0139,0.0141,0.0143,0.0148,0.0149,0.0173,0.0173,0,0,0.0084,0.0076,0.0094,0.0097,0.0076,0.009,0.0091,0.0128,0.0127,0.0139,0.0142,0.0144,0.0149,0.0149,0.0174,0.0173,0,0,0,0.0078,0.0076,0.008,0.0095,0.0095,0.009,0.0091,0.0125,0.0127,0.0142,0.0144,0.0149,0.015,0.0174,0.0173,0.0145,0,0,0,0.0078,0.0072,0.0079,0.0075,0.0094,0.0107,0.0088,0.0124,0.0128,0.0144,0.0149,0.015,0.0174,0.0174,0.0146,0.0135,0,0,0,0.0072,0.0071,0.007,0.0074,0.0079,0.0106,0.0109,0.0125,0.0129,0.0148,0.015,0.0174,0.0174,0.0147,0.0136,0.0198,0,0,0,0.0067,0.0038,0.007,0.004,0.0079,0.0072,0.0109,0.0112,0.0123,0.0149,0.0174,0.0173,0.0147,0.0137,0.0197,0.0326,0.0338,0,0,0.0023,0.0033,0.0014,0.0042,0.0014,0.0071,0.0064,0.0098,0.0128,0.0165,0.0165,0.0146,0.0136,0.0198,0.0312,0.0325,0,0,0,-0.0006,-0.0023,-0.0025,-0.0031,-0.0013,0.0019,0.0057,0.0087,0.0124,0.0133,0.0149,0.0144,0.0184,0.0261,0.027,0.0172,0.0172,0.0172,0.0172,-0.0068,-0.0065,-0.0099,-0.0088,-0.0076,-0.0016,0.0018,0.007,0.0098,0.0114,0.0123,0.0151,0.023,0.0239,0.0126,0.0125,0.0125,0.0125,0.0125,-0.0146,-0.0166,-0.0149,-0.0182,-0.0128,-0.0112,-0.002,0.0022,0.0106,0.0105,0.0147,0.0228,0.0249,0.0123,0.0123,0.0124,0.0124,0.0124,0.0124,-0.0189,-0.0199,-0.0215,-0.0237,-0.0217,-0.0157,-0.0082,-0.0011,0.0074,0.0112,0.0258,0.026,0.0161,0.0155,0.0155,0.0155,0.0156,0.0156,0.0156,-0.022,-0.0238,-0.0265,-0.0287,-0.0278,-0.0232,-0.0107,-0.0011,0.0164,0.0247,0.0249,0.0162,0.0161,0.0165,0.0159,0.0158,0.0158,0.0158,0.0158,-0.0261,-0.0261,-0.0303,-0.0309,-0.0298,-0.0241,-0.0117,0.0151,0.0273,0.0398,0.0352,0.0346,0.0384,0.0378,0.0387,0.044,0.044,0.044,0.044,-0.0265,-0.0279,-0.0303,-0.0315,-0.0299,-0.0239,-0.0035,0.0162,0.0369,0.0393,0.0393,0.0379,0.0372,0.0405,0.0399,0.0407,0.0464,0.0464,0.0463,-0.0264,-0.0278,-0.028,-0.0316,-0.0302,-0.022,-0.0053,0.0175,0.0369,0.0449,0.0243,0.0471,0.0455,0.0441,0.0497,0.0484,0.05,0,0]}],[{"header":{"parameterUnit":"m.s-1","parameterCategory":2,"la1":30.2992,"la2":30.254,"lo1":-89.0895,"lo2":-89.0443,"dy":0.0025,"dx":0.0025,"nx":19,"ny":19,"refTime":"2026-03-14T03:00:00:Z","depth":"4","parameterNumber":2,"parameterNumberName":"U-component_of_CURRENTS"},"data":[0,0,0,-0.0804,-0.0805,-0.0878,-0.0878,-0.0928,-0.0929,0,0,0,0,0,0,0,0,0,0,0,-0.0779,-0.0779,-0.0804,-0.0806,-0.0878,-0.0878,-0.0928,-0.0929,0,0,0,0,0,0,0,0,0,0,0,-0.0779,-0.0779,-0.078,-0.0806,-0.0878,-0.0878,-0.0928,-0.0885,0,0,0,0,0,0,0,0,0,0,-0.082,-0.0804,-0.0779,-0.078,-0.0806,-0.0878,-0.0878,-0.0883,-0.0887,-0.0883,0,-0.0896,0,-0.0912,-0.0931,-0.0931,0,0,0,-0.0807,-0.0801,-0.0818,-0.078,-0.0807,-0.0878,-0.0846,-0.0886,-0.089,-0.0888,-0.0897,-0.0899,-0.0913,-0.0931,-0.0931,-0.0984,-0.0985,0,0,-0.0803,-0.0794,-0.0815,-0.0821,-0.0827,-0.0843,-0.0848,-0.0889,-0.0895,-0.0897,-0.09,-0.0914,-0.0931,-0.0932,-0.0984,-0.0984,0,0,0,-0.0791,-0.0791,-0.0808,-0.0818,-0.0834,-0.0846,-0.0851,-0.0893,-0.0899,-0.0901,-0.0914,-0.0931,-0.0932,-0.0984,-0.0984,-0.1019,0,0,0,-0.0788,-0.0783,-0.0806,-0.0801,-0.0834,-0.0871,-0.0854,-0.0896,-0.0901,-0.0914,-0.0931,-0.0932,-0.0983,-0.0984,-0.1017,-0.1032,0,0,0,-0.0775,-0.0782,-0.079,-0.0801,-0.0831,-0.0871,-0.0879,-0.0898,-0.0909,-0.0931,-0.0932,-0.0983,-0.0984,-0.1016,-0.1029,-0.1016,0,0,0,-0.0762,-0.0784,-0.079,-0.0823,-0.0831,-0.0889,-0.0879,-0.0923,-0.0946,-0.0932,-0.0983,-0.0984,-0.1015,-0.1028,-0.1015,-0.086,0,0,0,-0.0781,-0.0786,-0.0806,-0.0814,-0.087,-0.0879,-0.0937,-0.0958,-0.0953,-0.0966,-0.0968,-0.1018,-0.1029,-0.1016,-0.0908,0,0,0,0,-0.0808,-0.0821,-0.084,-0.0874,-0.0913,-0.0954,-0.0978,-0.0983,-0.1005,-0.097,-0.1024,-0.103,-0.102,-0.0928,-0.0988,-0.0988,-0.0988,-0.0988,-0.0987,-0.0808,-0.0837,-0.0876,-0.0917,-0.0958,-0.1009,-0.1034,-0.1044,-0.1038,-0.1051,-0.1064,-0.1085,-0.099,-0.1069,-0.1069,-0.1069,-0.107,-0.107,-0.107,-0.0823,-0.0836,-0.0893,-0.094,-0.0993,-0.1043,-0.1087,-0.109,-0.1106,-0.11,-0.1088,-0.0978,-0.1073,-0.1073,-0.1072,-0.1072,-0.1071,-0.1071,-0.1071,-0.0799,-0.0808,-0.0852,-0.0911,-0.0983,-0.1047,-0.1076,-0.1125,-0.113,-0.114,-0.1015,-0.11,-0.1089,-0.1129,-0.1129,-0.1129,-0.1129,-0.1129,-0.1129,-0.0739,-0.0786,-0.0788,-0.0871,-0.0893,-0.0962,-0.1067,-0.1079,-0.1123,-0.1036,-0.1147,-0.1105,-0.1103,-0.1092,-0.113,-0.113,-0.113,-0.113,-0.113,-0.0675,-0.0689,-0.0682,-0.0693,-0.0745,-0.0797,-0.0937,-0.0977,-0.0968,-0.0927,-0.0963,-0.0971,-0.0936,-0.0938,-0.092,-0.0909,-0.0907,-0.0905,0,-0.0602,-0.0619,-0.0566,-0.0539,-0.0547,-0.0675,-0.0672,-0.0751,-0.0806,-0.0761,-0.0928,-0.0966,-0.0972,-0.093,-0.0929,-0.0905,0,0,0,-0.0533,-0.0531,-0.046,-0.0451,-0.0441,-0.0533,-0.0671,-0.0655,-0.0807,-0.0797,-0.0858,-0.087,-0.1044,-0.1131,-0.1096,-0.1094,-0.1074,0,0]},{"header":{"parameterUnit":"m.s-1","parameterCategory":2,"la1":30.2992,"la2":30.254,"lo1":-89.0895,"lo2":-89.0443,"dy":0.0025,"dx":0.0025,"nx":19,"ny":19,"refTime":"2026-03-14T03:00:00:Z","depth":"4","parameterNumber":3,"parameterNumberName":"V-component_of_CURRENTS"},"data":[0,0,0,-0.0219,-0.0219,-0.0202,-0.0202,-0.014,-0.014,0,0,0,0,0,0,0,0,0,0,0,-0.0226,-0.0226,-0.0219,-0.0219,-0.0202,-0.0202,-0.014,-0.014,0,0,0,0,0,0,0,0,0,0,0,-0.0226,-0.0226,-0.0226,-0.0219,-0.0202,-0.0202,-0.0141,-0.0161,0,0,0,0,0,0,0,0,0,0,-0.0182,-0.0199,-0.0226,-0.0226,-0.0219,-0.0202,-0.0202,-0.0163,-0.016,-0.0139,0,-0.0144,0,-0.0142,-0.0135,-0.0135,0,0,0,-0.0211,-0.0201,-0.0196,-0.0226,-0.0219,-0.0202,-0.0207,-0.0162,-0.0158,-0.0136,-0.0143,-0.0141,-0.0141,-0.0135,-0.0135,-0.0072,-0.0071,0,0,-0.0212,-0.022,-0.0198,-0.0194,-0.0222,-0.0208,-0.0207,-0.016,-0.016,-0.0143,-0.014,-0.014,-0.0135,-0.0134,-0.0072,-0.0072,0,0,0,-0.022,-0.0221,-0.0217,-0.0197,-0.0198,-0.0208,-0.0206,-0.0162,-0.0161,-0.0139,-0.0139,-0.0134,-0.0133,-0.0072,-0.0072,-0.0094,0,0,0,-0.022,-0.0226,-0.0218,-0.0221,-0.0199,-0.0185,-0.0209,-0.0164,-0.0159,-0.014,-0.0134,-0.0133,-0.0072,-0.0072,-0.0094,-0.0111,0,0,0,-0.0225,-0.0226,-0.0227,-0.0222,-0.0218,-0.0186,-0.0183,-0.0163,-0.0159,-0.0135,-0.0133,-0.0072,-0.0072,-0.0094,-0.0111,-0.0082,0,0,0,-0.0229,-0.0247,-0.0227,-0.0243,-0.0218,-0.0209,-0.0183,-0.017,-0.0152,-0.0134,-0.0072,-0.0072,-0.0094,-0.011,-0.0083,-0.0197,0,0,0,-0.0256,-0.025,-0.0259,-0.0241,-0.0252,-0.021,-0.0197,-0.0163,-0.0134,-0.0084,-0.0083,-0.0094,-0.0111,-0.0082,-0.0166,0,0,0,0,-0.027,-0.0282,-0.028,-0.028,-0.0259,-0.023,-0.019,-0.0157,-0.0111,-0.0123,-0.0077,-0.0087,-0.0068,-0.0135,-0.0069,-0.0069,-0.0069,-0.0069,-0.007,-0.0321,-0.031,-0.0331,-0.0315,-0.0297,-0.0237,-0.0202,-0.0146,-0.0117,-0.0093,-0.0093,-0.0071,-0.0142,-0.0074,-0.0074,-0.0074,-0.0074,-0.0074,-0.0074,-0.038,-0.0399,-0.0374,-0.0394,-0.0344,-0.0318,-0.0217,-0.0175,-0.0097,-0.0087,-0.0067,-0.0139,-0.0076,-0.0075,-0.0075,-0.0075,-0.0075,-0.0075,-0.0074,-0.0425,-0.0436,-0.0444,-0.0467,-0.0449,-0.0381,-0.0352,-0.0241,-0.0132,-0.0104,-0.0145,-0.0074,-0.0085,-0.0083,-0.0083,-0.0083,-0.0083,-0.0083,-0.0083,-0.0475,-0.0483,-0.0537,-0.055,-0.0571,-0.0552,-0.0427,-0.0358,-0.0209,-0.0181,-0.0103,-0.0074,-0.0074,-0.0084,-0.0082,-0.0082,-0.0082,-0.0082,-0.0082,-0.0544,-0.0551,-0.0629,-0.0672,-0.0718,-0.0695,-0.0608,-0.044,-0.0358,-0.027,-0.0207,-0.0201,-0.0198,-0.0194,-0.0209,-0.0244,-0.0245,-0.0247,0,-0.0593,-0.0602,-0.0704,-0.0775,-0.0816,-0.0767,-0.0719,-0.0597,-0.0384,-0.0393,-0.0307,-0.0241,-0.0235,-0.0237,-0.0235,-0.0256,0,0,0,-0.0646,-0.0665,-0.0741,-0.0796,-0.0839,-0.0751,-0.0688,-0.0626,-0.0466,-0.0385,-0.0283,-0.0274,-0.0217,-0.008,-0.006,-0.006,-0.0075,0,0]}]]